www.pogodaiklimat.ru

Погода и климат >> Архив погоды >> Пакистан >> Badin


ПОГОДА в Badin

  • Прогноз погоды в Badin
  • Монитор погоды в Badin
  • Климат города

АРХИВ ПОГОДЫ в Badin

Время (UTC), дата Ветер
(напр.,м/с)
 
Видим.   Явления Облачность Т
(С)
Тd
(С)
f
(%)
Тe
(С)
Тes
(С)
Комфортность P
(гПа)
Po
(гПа)
Тmin
(С)
Tmax
(С)
R
(мм)
R24
(мм)
S
(см)
21 10.10 штиль 0 4000 м ясно +27.0 +22.6 77 +36 +36 очень
душно
1004.6 1005.0
00 11.10 штиль 0 4000 м ясно +25.5 +22.6 84 +34 +34 очень
душно
1003.9 1002.6
03 11.10 штиль 0 10 км ясно +27.5 +22.4 74 +36 +39 очень
душно
1005.5 1004.2 +25.0
06 11.10 В 1 10 км ясно +34.0 +21.6 48 +42 +58 опасность
перегрева
1006.7 1000.0
09 11.10 С 1 10 км ясно +36.5 +20.3 39 +43 +57 опасность
перегрева
1004.0 1004.0
12 11.10 штиль 0 10 км ясно +37.0 +21.0 40 +44 +46 опасность
перегрева
1002.7 1001.5 +38.0
15 11.10 штиль 0 4000 м ясно +32.0 +21.8 55 +41 +41 опасность
перегрева
1004.7 1005.0
18 11.10 штиль 0 4000 м ясно +29.5 +22.2 65 +38 +38 очень
душно
1005.9 1006.0
21 11.10 штиль 0 4000 м ясно +27.5 +22.4 74 +36 +36 очень
душно
1005.0 1000.0
00 12.10 штиль 0 4000 м ясно +26.0 +22.3 80 +34 +34 очень
душно
1004.0 1002.7
03 12.10 штиль 0 10 км ясно +28.0 +22.1 70 +36 +39 очень
душно
1006.8 1005.5 +25.5
06 12.10 СВ 1 10 км ясно +33.5 +21.0 48 +41 +56 опасность
перегрева
1007.1 1007.0
09 12.10 С 1 10 км ясно +36.0 +21.5 43 +44 +58 опасность
перегрева
1004.9 1005.0
12 12.10 штиль 0 10 км ясно +37.5 +21.9 41 +46 +48 опасность
перегрева
1003.7 1002.5 +38.1
15 12.10 штиль 0 4000 м ясно +32.0 +21.8 55 +41 +41 опасность
перегрева
1005.6 1000.0
18 12.10 ЮЗ 1 4000 м ясно +29.0 +22.4 68 +38 +38 очень
душно
1007.1 1000.0
21 12.10 ЮЗ 1 4000 м ясно +29.0 +22.4 68 +38 +38 очень
душно
1007.1 1007.0
00 13.10 штиль 0 4000 м ясно +25.0 +22.0 83 +32 +32 очень
душно
1004.0 1004.0
03 13.10 З 1 10 км ясно +27.5 +23.1 77 +37 +39 очень
душно
1006.1 1004.8 +25.5
06 13.10 В 1 10 км ясно +34.0 +20.8 46 +41 +56 опасность
перегрева
1006.5 1007.0
09 13.10 З 1 10 км ясно +37.5 +17.8 32 +41 +57 опасность
перегрева
1003.6 1000.0
12 13.10 З 1 10 км ясно +37.5 +18.8 34 +42 +44 опасность
перегрева
1002.4 1001.2 +38.5
15 13.10 З 1 4000 м ясно +32.0 +20.0 49 +38 +38 очень
душно
1003.7 1004.0
18 13.10 З 1 4000 м ясно +28.0 +21.3 67 +35 +35 очень
душно
1004.8 1000.0
21 13.10 З 1 4000 м ясно +26.0 +21.5 76 +33 +33 очень
душно
1004.2 1000.0
00 14.10 З 1 4000 м ясно +24.5 +21.5 83 +31 +31 очень
душно
1003.2 1001.9
03 14.10 З 1 10 км ясно +25.5 +21.0 76 +32 +34 очень
душно
1005.7 1004.4 +24.1
06 14.10 З 1 10 км ясно +31.0 +23.1 63 +41 +56 опасность
перегрева
1006.7 1000.0
09 14.10 ЮЗ 1 10 км ясно +35.0 +22.9 50 +45 +59 опасность
перегрева
1003.8 1004.0
12 14.10 З 1 10 км ясно +36.0 +22.4 46 +45 +47 опасность
перегрева
1002.1 1000.9 +37.1
15 14.10 З 1 4000 м ясно +30.0 +22.0 62 +39 +39 очень
душно
1003.9 1000.0
18 14.10 З 1 4000 м ясно +27.0 +22.6 77 +36 +36 очень
душно
1005.5 1000.0
21 14.10 З 1 4000 м ясно +26.0 +22.3 80 +34 +34 очень
душно
1004.8 1000.0
00 15.10 З 1 4000 м 5/0
[Ac trans]
+25.5 +22.6 84 +34 +34 очень
душно
1004.0 1002.7
03 15.10 З 4 10 км 5/0
[Ac trans]
+26.5 +22.9 81 +35 +36 очень
душно
1005.7 1004.4 +25.0
06 15.10 ЮЗ 3 10 км ясно +31.0 +23.1 63 +41 +52 опасность
перегрева
1006.5 1007.0
09 15.10 ЮЗ 3 10 км ясно +35.0 +22.9 50 +45 +55 опасность
перегрева
1004.9 1005.0
12 15.10 З 2 10 км ясно +35.0 +22.9 50 +45 +46 опасность
перегрева
1004.0 1002.8 +36.0
15 15.10 З 1 4000 м ясно +31.0 +22.3 60 +40 +40 очень
душно
1005.2 1000.0
18 15.10 З 1 4000 м ясно +29.0 +23.2 71 +39 +39 очень
душно
1006.4 1000.0
21 15.10 З 1 4000 м ясно +27.5 +23.7 80 +38 +38 очень
душно
1005.5 1000.0
00 16.10 З 1 4000 м ясно +25.5 +22.6 84 +34 +34 очень
душно
1004.6 1003.3
03 16.10 ЮЗ 2 10 км 5/0
[Ac trans]
+26.5 +22.9 81 +35 +37 очень
душно
1005.7 1004.4 +25.1
06 16.10 З 2 10 км ясно +30.0 +23.5 68 +41 +53 опасность
перегрева
1008.5 1009.0
09 16.10 З 3 10 км ясно +34.0 +24.1 56 +46 +56 опасность
перегрева
1006.5 1007.0
12 16.10 З 2 10 км ясно +35.0 +23.7 52 +46 +47 опасность
перегрева
1005.2 1004.0 +36.0
15 16.10 штиль 0 4000 м ясно +31.0 +23.9 66 +43 +43 опасность
перегрева
1005.5 1006.0
18 16.10 З 2 4000 м ясно +29.5 +24.5 75 +42 +42 опасность
перегрева
1008.0 1008.0
00 17.10 З 3 4000 м ясно +26.5 +24.4 88 +37 +37 очень
душно
1006.1 1004.8
03 17.10 З 1 10 км ясно +27.5 +23.9 81 +38 +40 очень
душно
1008.4 1007.1 +26.0
06 17.10 З 2 10 км ясно +30.5 +24.9 72 +44 +56 опасность
перегрева
1009.7 1010.0
09 17.10 З 1 10 км ясно +35.0 +23.7 52 +46 +60 опасность
перегрева
1006.9 1007.0
12 17.10 З 1 10 км ясно +36.5 +23.0 46 +46 +48 опасность
перегрева
1005.1 1003.9 +37.1

 

Местоположение метеостанции Badin (Пакистан): широта 24.63 долгота 68.90 высота над уровнем моря 11 м.

В архиве по умолчанию представлена погода в Badin за последнюю неделю. Архивные данные за месяц целиком и за предыдущие месяцы, начиная с января 2011 года, Вы можете получить, выбрав интересующий диапазон дат из раскрывающегося списка и нажав кнопку "Ввод!".

Внимание! Время в таблицах - всемирное. Для получения местного времени необходимо прибавить поправку, которая в Badin равна 5 ч.

Смотрите также архив погоды в соседних городах и на ближайших метеорологических станциях:

Погода в Hyderabad Airport (Пакистан) (96 км)
Погода в Chhor (Пакистан) (133 км)
Погода в Naliya (Gujarat, Индия) (154 км)
Погода в Bhuj-Rudramata (Gujarat, Индия) (172 км)
Погода в Karachi (Пакистан) (181 км)
Погода в Nawabshah (Пакистан) (188 км)
Погода в Mandvi (Gujarat, Индия) (205 км)
Погода в Kandla (Gujarat, Индия) (209 км)
Погода в New Kandla (Gujarat, Индия) (226 км)
Погода в Okha (Gujarat, Индия) (240 км)

Пояснения к столбцам:

Ветер - указаны скорость ветра в м/с - средняя за 10 мин, порывы в срок и между сроками (в фигурных скобках) и направление, откуда дует ветер: С - северный, СВ - северо-восточный, В - восточный, ЮВ - юго-восточный, Ю - южный, ЮЗ - юго-западный, З - западный, СЗ - северо-западный.
Видимость - горизонтальная дальность видимости в метрах или километрах. При видимости от 1 до 10 км при отсутствии осадков обычно наблюдается дымка, при ухудшении видимости до 1 км и менее - туман. В сухую погоду видимость может ухудшаться дымом, пылью или мглою.
Явления - указаны атмосферные явления, наблюдавшиеся в срок или в последний час перед сроком; фигурными скобками обозначены явления, наблюдавшиеся между сроками (за 1-3 часа до срока); квадратными скобками обозначены град или гололедные отложения с указанием их диаметра в мм.
Облачность - указаны через наклонную черту общая и нижняя облачность в баллах и высота нижней границы облаков в метрах; квадратными скобками обозначены формы облаков: Ci - перистые, Cs - перисто-слоистые, Cc - перисто-кучевые, Ac - высококучевые, As - высокослоистые, Sc - слоисто-кучевые, Ns - слоисто-дождевые, Cu - кучевые, Cb - кучево-дождевые. Подробнее классификацию облаков см. в Атласе облаков (PDF).
T - Температура воздуха - температура, измеренная на высоте 2 м над землей.
Td - Температура точки росы - температура, при понижении до которой содержащийся в воздухе водяной пар достигнет насыщения.
f - Относительная влажность воздуха - влажноcть воздуха, измеренная на высоте 2 м над землей.
Te - Эффективная температура - температура, которую ощущает одетый по сезону человек в тени. Характеристика душности погоды. При расчете учитывается влияние влажности воздуха и скорости ветра на теплоощущения человека.
Tes - Эффективная температура на солнце - температура, которую ощущает человек, с поправкой на солнечный нагрев. Характеристика знойности погоды. Зависит от высоты солнца над горизонтом, облачности и скорости ветра. Ночью, в пасмурную погоду, а также при ветре 12 м/с и более поправка равна нулю.
P - Атмосферное давление - приведенное к уровню моря атмосферное давление.
Po - Атмосферное давление - измеренное на уровне метеостанции атмосферное давление.
Tmin - Минимальная температура - минимум температуры воздуха на высоте 2 м над землей.
Tmax - Максимальная температура - максимум температуры воздуха на высоте 2 м над землей.
R - Количество осадков - Количество выпавших осадков за период времени, мм. При наведении курсора мыши на число - период времени, за который выпало указанное количество осадков.
R24 - Количество осадков - Количество выпавших осадков за 24 часа, мм.
S - Снежный покров - Высота снежного покрова, см. При наведении курсора мыши на число - состояние снежного покрова и степень покрытия местности в баллах.